Change the Weather History Date:

Monday, October 17, 2011

  Actual Average Record
Temperature  
Mean Temperature 46 °F -  
Max Temperature 57 °F 51 °F 66 °F (2013)
Min Temperature 37 °F 27 °F 23 °F (1997)
Degree Days  
Heating Degree Days 19    
Moisture  
Dew Point 38 °F    
Average Humidity 70    
Maximum Humidity 93    
Minimum Humidity 41    
Precipitation  
Precipitation 0.20 in - - ()
Sea Level Pressure  
Sea Level Pressure 29.59 in    
Wind  
Wind Speed 4 mph (SW)    
Max Wind Speed 12 mph    
Max Gust Speed 23 mph    
Visibility 9 miles    
Events Rain    
Averages and records for this station are not official NWS values.
T = Trace of Precipitation, MM = Missing Value Source: NWS Daily Summary

Daily Weather History Graph

Daily Weather History Graph

Search for Another Location

Airport or City:

Trip Planner

Search our weather history database for the weather conditions in past years. The results will help you decide how hot, cold, wet, or windy it might be!

Date:

Astronomy

Oct. 17, 2011 Rise Set
Actual Time 7:02 AM EDT 5:57 PM EDT
Civil Twilight 6:32 AM EDT 6:26 PM EDT
Nautical Twilight 5:58 AM EDT 7:00 PM EDT
Astronomical Twilight 5:25 AM EDT 7:34 PM EDT
Moon 9:25 PM EDT (10/17) 12:16 PM EDT (10/17)
Length of Visible Light 11h 54m
Length of Day
10h 55m
Waning Gibbous, 74% of the Moon is Illuminated
Oct 17
Waning Gibbous
Oct 19
Last Quarter
Oct 26
New
Nov 2
First Quarter
Nov 10
Full

Hourly Weather History & Observations

Time (EDT) Temp. Windchill Dew Point Humidity Pressure Visibility Wind Dir Wind Speed Gust Speed Precip Events Conditions
12:52 AM 48.9 °F - 45.0 °F 86% 29.55 in 8.0 mi Calm Calm - 0.02 in Rain Light Rain
1:52 AM 48.0 °F - 45.0 °F 89% 29.51 in 10.0 mi SE 5.8 mph - 0.02 in Rain Light Rain
2:39 AM 48.2 °F - 46.4 °F 93% 29.49 in 2.5 mi NNW 3.5 mph - 0.07 in Rain Heavy Rain
2:52 AM 48.0 °F - 46.0 °F 93% 29.50 in 4.0 mi SE 4.6 mph - 0.12 in Rain Light Rain
3:52 AM 46.0 °F 42.5 °F 42.1 °F 86% 29.53 in 7.0 mi West 6.9 mph 16.1 mph 0.03 in Rain Light Rain
4:52 AM 45.0 °F - 41.0 °F 86% 29.55 in 10.0 mi Calm Calm - 0.00 in   Overcast
6:52 AM 37.9 °F - 36.0 °F 93% 29.56 in 10.0 mi Calm Calm - N/A   Clear
8:52 AM 44.1 °F 42.5 °F 39.9 °F 85% 29.60 in 10.0 mi Variable 3.5 mph - N/A   Clear
9:52 AM 50.0 °F - 37.9 °F 63% 29.61 in 10.0 mi Variable 5.8 mph 17.3 mph N/A   Partly Cloudy
10:52 AM 52.0 °F - 36.0 °F 54% 29.60 in 10.0 mi WSW 11.5 mph - N/A   Clear
11:52 AM 53.1 °F - 32.0 °F 45% 29.60 in 10.0 mi West 10.4 mph 23.0 mph N/A   Clear
12:52 PM 55.0 °F - 32.0 °F 42% 29.57 in 10.0 mi Variable 5.8 mph - N/A   Partly Cloudy
2:52 PM 54.0 °F - 30.9 °F 41% 29.57 in 10.0 mi WSW 5.8 mph - N/A   Mostly Cloudy
3:52 PM 53.1 °F - 30.9 °F 43% 29.58 in 10.0 mi SW 11.5 mph 18.4 mph N/A   Overcast
4:52 PM 52.0 °F - 32.0 °F 47% 29.60 in 10.0 mi SW 5.8 mph - N/A   Overcast
5:52 PM 51.1 °F - 34.0 °F 52% 29.62 in 10.0 mi Variable 4.6 mph - N/A   Overcast
6:52 PM 51.1 °F - 35.1 °F 54% 29.64 in 10.0 mi Variable 4.6 mph 18.4 mph 0.00 in Rain Light Rain
9:52 PM 46.0 °F - 39.9 °F 79% 29.69 in 10.0 mi Calm Calm - 0.01 in Rain Light Rain
10:52 PM 45.0 °F - 41.0 °F 86% 29.68 in 10.0 mi Calm Calm - 0.00 in Rain Light Rain
11:52 PM 46.0 °F 44.8 °F 41.0 °F 83% 29.67 in 10.0 mi SW 3.5 mph - 0.00 in   Overcast